| time (UTC) | temp F | wind direction | speed MPH | gust MPH | rain 1hr in | rain 24hr in | rain mn in | humidity % | barometer mb |
| 20260901192549 | 96 | 210 | 8.0 | 17.0 | 0.00 | 0.00 | 0.00 | 29 | 1016.6 |
| 20260901192048 | 96 | 165 | 10.0 | 17.0 | 0.00 | 0.00 | 0.00 | 28 | 1016.6 |
| 20260901191604 | 95 | 205 | 7.0 | 18.0 | 0.00 | 0.00 | 0.00 | 30 | 1016.5 |
| 20260901191047 | 95 | 283 | 4.0 | 18.0 | 0.00 | 0.00 | 0.00 | 29 | 1016.5 |
| 20260901190548 | 96 | 210 | 10.0 | 15.0 | 0.00 | 0.00 | 0.00 | 28 | 1016.6 |
| 20260901190105 | 95 | 207 | 4.0 | 14.0 | 0.00 | 0.00 | 0.00 | 29 | 1016.6 |
| 20260901185548 | 95 | 218 | 8.0 | 17.0 | 0.00 | 0.00 | 0.00 | 27 | 1016.6 |
| 20260901185050 | 95 | 223 | 8.0 | 17.0 | 0.00 | 0.00 | 0.00 | 27 | 1016.6 |
| 20260901184605 | 96 | 201 | 12.0 | 20.0 | 0.00 | 0.00 | 0.00 | 27 | 1016.8 |
| 20260901184046 | 96 | 167 | 11.0 | 20.0 | 0.00 | 0.00 | 0.00 | 26 | 1016.8 |
| 20260901183546 | 96 | 194 | 12.0 | 20.0 | 0.00 | 0.00 | 0.00 | 27 | 1016.8 |
| 20260901183121 | 96 | 245 | 12.0 | 16.0 | 0.00 | 0.00 | 0.00 | 30 | 1016.9 |
| 20260901182546 | 95 | 153 | 10.0 | 19.0 | 0.00 | 0.00 | 0.00 | 30 | 1016.9 |
| 20260901182051 | 95 | 223 | 11.0 | 19.0 | 0.00 | 0.00 | 0.00 | 30 | 1017.1 |
| 20260901181605 | 95 | 205 | 11.0 | 19.0 | 0.00 | 0.00 | 0.00 | 31 | 1017.3 |
| 20260901181046 | 95 | 226 | 12.0 | 19.0 | 0.00 | 0.00 | 0.00 | 31 | 1017.3 |
| 20260901180546 | 95 | 208 | 12.0 | 17.0 | 0.00 | 0.00 | 0.00 | 30 | 1017.3 |
| 20260901180108 | 95 | 209 | 11.0 | 17.0 | 0.00 | 0.00 | 0.00 | 33 | 1017.3 |
| 20260901175546 | 94 | 226 | 11.0 | 16.0 | 0.00 | 0.00 | 0.00 | 35 | 1017.4 |
| 20260901175046 | 93 | 198 | 8.0 | 15.0 | 0.00 | 0.00 | 0.00 | 35 | 1017.5 |
| 20260901174559 | 93 | 149 | 9.0 | 16.0 | 0.00 | 0.00 | 0.00 | 35 | 1017.6 |
| 20260901174048 | 93 | 239 | 9.0 | 16.0 | 0.00 | 0.00 | 0.00 | 36 | 1017.6 |
| 20260901173549 | 93 | 227 | 10.0 | 16.0 | 0.00 | 0.00 | 0.00 | 36 | 1017.6 |
| 20260901173151 | 93 | 208 | 11.0 | 16.0 | 0.00 | 0.00 | 0.00 | 36 | 1017.7 |
| 20260901172548 | 92 | 217 | 8.0 | 15.0 | 0.00 | 0.00 | 0.00 | 37 | 1017.8 |
| 20260901172049 | 92 | 227 | 10.0 | 15.0 | 0.00 | 0.00 | 0.00 | 37 | 1017.9 |
| 20260901171606 | 91 | 233 | 8.0 | 15.0 | 0.00 | 0.00 | 0.00 | 38 | 1017.8 |
| 20260901171049 | 91 | 222 | 10.0 | 15.0 | 0.00 | 0.00 | 0.00 | 38 | 1017.9 |
| 20260901170546 | 91 | 224 | 10.0 | 17.0 | 0.00 | 0.00 | 0.00 | 38 | 1018.0 |
| 20260901170108 | 91 | 237 | 9.0 | 17.0 | 0.00 | 0.00 | 0.00 | 38 | 1018.1 |
| 20260901165547 | 91 | 250 | 11.0 | 15.0 | 0.00 | 0.00 | 0.00 | 38 | 1018.2 |
| 20260901165047 | 90 | 229 | 11.0 | 16.0 | 0.00 | 0.00 | 0.00 | 39 | 1018.1 |
| 20260901164606 | 89 | 250 | 11.0 | 16.0 | 0.00 | 0.00 | 0.00 | 39 | 1018.0 |
| 20260901164046 | 89 | 255 | 10.0 | 16.0 | 0.00 | 0.00 | 0.00 | 39 | 1018.2 |
| 20260901163546 | 89 | 210 | 10.0 | 17.0 | 0.00 | 0.00 | 0.00 | 40 | 1018.2 |
| 20260901163119 | 89 | 193 | 11.0 | 17.0 | 0.00 | 0.00 | 0.00 | 40 | 1018.2 |
| 20260901162548 | 89 | 235 | 10.0 | 18.0 | 0.00 | 0.00 | 0.00 | 40 | 1018.2 |
| 20260901162047 | 88 | 231 | 10.0 | 18.0 | 0.00 | 0.00 | 0.00 | 40 | 1018.2 |
| 20260901161609 | 88 | 241 | 12.0 | 18.0 | 0.00 | 0.00 | 0.00 | 41 | 1018.2 |
| 20260901161046 | 88 | 235 | 12.0 | 18.0 | 0.00 | 0.00 | 0.00 | 41 | 1018.2 |
| 20260901160546 | 88 | 213 | 12.0 | 18.0 | 0.00 | 0.00 | 0.00 | 41 | 1018.2 |
| 20260901160107 | 88 | 232 | 11.0 | 17.0 | 0.00 | 0.00 | 0.00 | 41 | 1018.3 |
| 20260901155549 | 88 | 212 | 10.0 | 17.0 | 0.00 | 0.00 | 0.00 | 41 | 1018.1 |
| 20260901155047 | 87 | 198 | 12.0 | 19.0 | 0.00 | 0.00 | 0.00 | 41 | 1018.1 |
| 20260901154606 | 87 | 247 | 14.0 | 19.0 | 0.00 | 0.00 | 0.00 | 41 | 1018.1 |
| 20260901154051 | 87 | 204 | 12.0 | 17.0 | 0.00 | 0.00 | 0.00 | 41 | 1018.1 |
| 20260901153546 | 87 | 214 | 12.0 | 17.0 | 0.00 | 0.00 | 0.00 | 41 | 1018.1 |
| 20260901153103 | 87 | 228 | 11.0 | 19.0 | 0.00 | 0.00 | 0.00 | 41 | 1018.0 |
| 20260901152547 | 86 | 211 | 10.0 | 19.0 | 0.00 | 0.00 | 0.00 | 43 | 1018.1 |
| 20260901152048 | 86 | 238 | 8.0 | 19.0 | 0.00 | 0.00 | 0.00 | 42 | 1018.2 |
| 20260901151610 | 86 | 0 | 10.0 | 16.0 | 0.00 | 0.00 | 0.00 | 42 | 1018.1 |
| 20260901151048 | 85 | 232 | 13.0 | 16.0 | 0.00 | 0.00 | 0.00 | 42 | 1018.2 |
| 20260901150547 | 86 | 214 | 12.0 | 17.0 | 0.00 | 0.00 | 0.00 | 42 | 1018.2 |
| 20260901150107 | 85 | 228 | 9.0 | 17.0 | 0.00 | 0.00 | 0.00 | 43 | 1018.3 |
| 20260901145547 | 85 | 193 | 10.0 | 15.0 | 0.00 | 0.00 | 0.00 | 43 | 1018.1 |
| 20260901145048 | 85 | 189 | 9.0 | 13.0 | 0.00 | 0.00 | 0.00 | 43 | 1018.1 |
| 20260901144604 | 84 | 212 | 10.0 | 15.0 | 0.00 | 0.00 | 0.00 | 44 | 1018.1 |
| 20260901144049 | 84 | 217 | 10.0 | 15.0 | 0.00 | 0.00 | 0.00 | 44 | 1018.1 |
| 20260901143546 | 83 | 188 | 11.0 | 14.0 | 0.00 | 0.00 | 0.00 | 45 | 1018.0 |
| 20260901143108 | 82 | 191 | 9.0 | 14.0 | 0.00 | 0.00 | 0.00 | 46 | 1018.0 |
| 20260901142546 | 81 | 210 | 8.0 | 14.0 | 0.00 | 0.00 | 0.00 | 48 | 1018.2 |
| 20260901142049 | 81 | 160 | 10.0 | 14.0 | 0.00 | 0.00 | 0.00 | 50 | 1018.2 |
| 20260901141617 | 80 | 165 | 10.0 | 13.0 | 0.00 | 0.00 | 0.00 | 50 | 1018.3 |
| 20260901141049 | 80 | 169 | 8.0 | 12.0 | 0.00 | 0.00 | 0.00 | 50 | 1018.3 |
| 20260901140546 | 79 | 207 | 7.0 | 14.0 | 0.00 | 0.00 | 0.00 | 51 | 1018.3 |
| 20260901140059 | 79 | 195 | 8.0 | 14.0 | 0.00 | 0.00 | 0.00 | 51 | 1018.3 |
| 20260901135547 | 79 | 193 | 9.0 | 14.0 | 0.00 | 0.00 | 0.00 | 52 | 1018.3 |
| 20260901135047 | 78 | 167 | 7.0 | 11.0 | 0.00 | 0.00 | 0.00 | 54 | 1018.3 |
| 20260901134555 | 76 | 172 | 8.0 | 11.0 | 0.00 | 0.00 | 0.00 | 56 | 1018.3 |
| 20260901134049 | 75 | 165 | 6.0 | 8.0 | 0.00 | 0.00 | 0.00 | 58 | 1018.3 |
| 20260901133549 | 74 | 162 | 4.0 | 7.0 | 0.00 | 0.00 | 0.00 | 60 | 1018.3 |
| 20260901133106 | 74 | 165 | 5.0 | 8.0 | 0.00 | 0.00 | 0.00 | 61 | 1018.3 |
| 20260901132547 | 73 | 156 | 5.0 | 8.0 | 0.00 | 0.00 | 0.00 | 63 | 1018.4 |
| 20260901132047 | 73 | 160 | 6.0 | 8.0 | 0.00 | 0.00 | 0.00 | 64 | 1018.3 |
| 20260901131601 | 72 | 140 | 6.0 | 8.0 | 0.00 | 0.00 | 0.00 | 66 | 1018.3 |
| 20260901131050 | 70 | 140 | 5.0 | 8.0 | 0.00 | 0.00 | 0.00 | 68 | 1018.3 |
| 20260901130549 | 69 | 145 | 5.0 | 7.0 | 0.00 | 0.00 | 0.00 | 70 | 1018.2 |
| 20260901130110 | 68 | 166 | 5.0 | 8.0 | 0.00 | 0.00 | 0.00 | 71 | 1018.2 |
| 20260901125546 | 67 | 159 | 5.0 | 8.0 | 0.00 | 0.00 | 0.00 | 73 | 1018.1 |
| 20260901125047 | 67 | 151 | 5.0 | 7.0 | 0.00 | 0.00 | 0.00 | 74 | 1018.1 |
| 20260901124605 | 66 | 146 | 5.0 | 6.0 | 0.00 | 0.00 | 0.00 | 74 | 1018.1 |
| 20260901124048 | 66 | 155 | 3.0 | 4.0 | 0.00 | 0.00 | 0.00 | 74 | 1018.1 |
| 20260901123549 | 66 | 136 | 2.0 | 3.0 | 0.00 | 0.00 | 0.00 | 73 | 1018.1 |
| 20260901123106 | 67 | 137 | 2.0 | 3.0 | 0.00 | 0.00 | 0.00 | 72 | 1018.0 |
| 20260901122547 | 67 | 145 | 2.0 | 3.0 | 0.00 | 0.00 | 0.00 | 72 | 1018.0 |
| 20260901122050 | 67 | 152 | 2.0 | 3.0 | 0.00 | 0.00 | 0.00 | 73 | 1017.9 |
| 20260901121606 | 67 | 174 | 1.0 | 3.0 | 0.00 | 0.00 | 0.00 | 73 | 1017.9 |
| 20260901121046 | 67 | 179 | 1.0 | 3.0 | 0.00 | 0.00 | 0.00 | 73 | 1017.8 |
| 20260901120546 | 67 | 195 | 1.0 | 3.0 | 0.00 | 0.00 | 0.00 | 73 | 1017.9 |
| 20260901120108 | 67 | 207 | 2.0 | 3.0 | 0.00 | 0.00 | 0.00 | 74 | 1017.8 |
| 20260901115546 | 66 | 214 | 0.0 | 1.0 | 0.00 | 0.01 | 0.00 | 74 | 1018.0 |
| 20260901115047 | 66 | 0 | 0.0 | 1.0 | 0.00 | 0.01 | 0.00 | 74 | 1017.9 |
| 20260901114605 | 66 | 0 | 0.0 | 1.0 | 0.00 | 0.01 | 0.00 | 74 | 1018.0 |
| 20260901114049 | 66 | 0 | 0.0 | 3.0 | 0.00 | 0.01 | 0.00 | 75 | 1017.9 |
| 20260901113547 | 66 | 109 | 1.0 | 3.0 | 0.00 | 0.01 | 0.00 | 75 | 1017.9 |
| 20260901113106 | 66 | 119 | 3.0 | 3.0 | 0.00 | 0.01 | 0.00 | 76 | 1017.9 |
| 20260901112546 | 65 | 127 | 2.0 | 2.0 | 0.00 | 0.01 | 0.00 | 76 | 1017.9 |
| 20260901112048 | 65 | 119 | 1.0 | 1.0 | 0.00 | 0.01 | 0.00 | 75 | 1017.8 |
| 20260901111607 | 66 | 0 | 0.0 | 3.0 | 0.00 | 0.01 | 0.00 | 73 | 1018.0 |
| 20260901111047 | 66 | 0 | 1.0 | 3.0 | 0.00 | 0.01 | 0.00 | 73 | 1018.0 |
| 20260901110546 | 67 | 146 | 2.0 | 3.0 | 0.00 | 0.01 | 0.00 | 72 | 1017.8 |
| 20260901105547 | 67 | 191 | 2.0 | 3.0 | 0.00 | 0.01 | 0.00 | 71 | 1017.9 |
| 20260901105049 | 68 | 154 | 3.0 | 3.0 | 0.00 | 0.01 | 0.00 | 71 | 1017.9 |
| 20260901104600 | 68 | 174 | 1.0 | 2.0 | 0.00 | 0.01 | 0.00 | 72 | 1017.9 |
| 20260901104049 | 68 | 0 | 0.0 | 0.0 | 0.00 | 0.01 | 0.00 | 72 | 1018.0 |
| 20260901103547 | 69 | 0 | 0.0 | 3.0 | 0.00 | 0.01 | 0.00 | 71 | 1017.9 |
| 20260901103105 | 69 | 0 | 0.0 | 3.0 | 0.00 | 0.01 | 0.00 | 71 | 1018.0 |
| 20260901102546 | 69 | 287 | 2.0 | 11.0 | 0.00 | 0.01 | 0.00 | 71 | 1018.0 |
| 20260901102046 | 69 | 209 | 1.0 | 13.0 | 0.00 | 0.01 | 0.00 | 70 | 1017.8 |
| 20260901101609 | 69 | 286 | 8.0 | 13.0 | 0.00 | 0.01 | 0.00 | 69 | 1018.2 |
| 20260901101050 | 70 | 270 | 1.0 | 3.0 | 0.00 | 0.01 | 0.00 | 65 | 1017.9 |
| 20260901100549 | 70 | 190 | 2.0 | 3.0 | 0.00 | 0.01 | 0.00 | 65 | 1017.8 |
| 20260901100111 | 70 | 161 | 2.0 | 4.0 | 0.00 | 0.01 | 0.00 | 65 | 1017.8 |
| 20260901095549 | 71 | 155 | 3.0 | 4.0 | 0.00 | 0.01 | 0.00 | 65 | 1017.7 |
| 20260901095048 | 71 | 198 | 2.0 | 4.0 | 0.00 | 0.01 | 0.00 | 65 | 1017.8 |
| 20260901094603 | 70 | 241 | 1.0 | 3.0 | 0.00 | 0.01 | 0.00 | 65 | 1017.8 |
| 20260901094047 | 71 | 277 | 2.0 | 4.0 | 0.00 | 0.01 | 0.00 | 64 | 1017.8 |
| 20260901093548 | 72 | 307 | 3.0 | 4.0 | 0.00 | 0.01 | 0.00 | 62 | 1017.8 |
| 20260901093100 | 73 | 283 | 0.0 | 6.0 | 0.00 | 0.01 | 0.00 | 60 | 1017.9 |
| 20260901092548 | 73 | 233 | 4.0 | 7.0 | 0.00 | 0.01 | 0.00 | 60 | 1017.8 |
| 20260901092049 | 73 | 207 | 4.0 | 7.0 | 0.00 | 0.01 | 0.00 | 60 | 1017.7 |
| 20260901091555 | 73 | 195 | 5.0 | 6.0 | 0.00 | 0.01 | 0.00 | 60 | 1017.6 |
| 20260901091048 | 73 | 203 | 4.0 | 6.0 | 0.00 | 0.01 | 0.00 | 60 | 1017.6 |
| 20260901090550 | 73 | 204 | 4.0 | 7.0 | 0.00 | 0.01 | 0.00 | 60 | 1017.5 |
| 20260901090105 | 73 | 191 | 5.0 | 8.0 | 0.00 | 0.01 | 0.00 | 60 | 1017.5 |
| 20260901085548 | 73 | 162 | 6.0 | 8.0 | 0.00 | 0.01 | 0.00 | 60 | 1017.5 |
| 20260901085051 | 73 | 182 | 6.0 | 8.0 | 0.00 | 0.01 | 0.00 | 60 | 1017.5 |
| 20260901084623 | 74 | 183 | 6.0 | 8.0 | 0.00 | 0.01 | 0.00 | 59 | 1017.5 |
| 20260901084127 | 74 | 174 | 6.0 | 8.0 | 0.00 | 0.01 | 0.00 | 59 | 1017.4 |
| 20260901083624 | 74 | 168 | 5.0 | 8.0 | 0.00 | 0.01 | 0.00 | 58 | 1017.4 |
| 20260901083133 | 75 | 196 | 5.0 | 9.0 | 0.00 | 0.01 | 0.00 | 57 | 1017.4 |
| 20260901082623 | 75 | 213 | 6.0 | 9.0 | 0.00 | 0.01 | 0.00 | 56 | 1017.4 |
| 20260901082121 | 76 | 197 | 6.0 | 11.0 | 0.00 | 0.01 | 0.00 | 56 | 1017.3 |
| 20260901081631 | 76 | 189 | 6.0 | 11.0 | 0.00 | 0.01 | 0.00 | 55 | 1017.3 |
| 20260901081121 | 76 | 210 | 7.0 | 10.0 | 0.00 | 0.01 | 0.00 | 55 | 1017.3 |
| 20260901080622 | 77 | 199 | 7.0 | 12.0 | 0.00 | 0.01 | 0.00 | 54 | 1017.3 |
| 20260901080127 | 77 | 210 | 8.0 | 12.0 | 0.00 | 0.01 | 0.00 | 54 | 1017.2 |
| 20260901075623 | 77 | 193 | 8.0 | 12.0 | 0.00 | 0.01 | 0.00 | 54 | 1017.2 |
| 20260901075121 | 77 | 186 | 7.0 | 11.0 | 0.00 | 0.01 | 0.00 | 54 | 1017.1 |
| 20260901074638 | 77 | 188 | 7.0 | 13.0 | 0.00 | 0.01 | 0.00 | 54 | 1017.1 |
| 20260901074124 | 77 | 205 | 8.0 | 13.0 | 0.00 | 0.01 | 0.00 | 54 | 1017.1 |
| 20260901073625 | 77 | 184 | 8.0 | 13.0 | 0.00 | 0.01 | 0.00 | 55 | 1017.1 |
| 20260901073130 | 77 | 203 | 8.0 | 12.0 | 0.00 | 0.01 | 0.00 | 55 | 1017.0 |
| 20260901072621 | 77 | 198 | 8.0 | 12.0 | 0.00 | 0.01 | 0.00 | 55 | 1017.1 |
| 20260901072120 | 77 | 186 | 7.0 | 12.0 | 0.00 | 0.01 | 0.00 | 55 | 1017.1 |
| 20260901071629 | 77 | 187 | 6.0 | 12.0 | 0.00 | 0.01 | 0.00 | 54 | 1017.1 |
| 20260901071120 | 78 | 200 | 8.0 | 11.0 | 0.00 | 0.01 | 0.00 | 54 | 1017.1 |
| 20260901070623 | 77 | 200 | 6.0 | 13.0 | 0.00 | 0.01 | 0.00 | 54 | 1017.1 |
| 20260901070130 | 78 | 210 | 6.0 | 13.0 | 0.00 | 0.01 | 0.00 | 54 | 1017.0 |
| 20260901065621 | 78 | 195 | 9.0 | 13.0 | 0.00 | 0.01 | 0.00 | 54 | 1017.1 |
| 20260901065121 | 78 | 207 | 8.0 | 11.0 | 0.00 | 0.01 | 0.00 | 54 | 1017.1 |
| 20260901064632 | 78 | 223 | 7.0 | 11.0 | 0.00 | 0.01 | 0.00 | 54 | 1017.1 |
| 20260901064120 | 78 | 210 | 7.0 | 11.0 | 0.00 | 0.01 | 0.00 | 54 | 1017.0 |
| 20260901063623 | 78 | 209 | 6.0 | 11.0 | 0.00 | 0.01 | 0.00 | 54 | 1016.9 |
| 20260901063129 | 78 | 205 | 6.0 | 11.0 | 0.00 | 0.01 | 0.00 | 54 | 1017.0 |
| 20260901062621 | 79 | 215 | 6.0 | 10.0 | 0.00 | 0.01 | 0.00 | 53 | 1017.0 |
| 20260901062124 | 79 | 222 | 6.0 | 11.0 | 0.00 | 0.01 | 0.00 | 53 | 1016.9 |
| 20260901061628 | 79 | 212 | 7.0 | 11.0 | 0.00 | 0.01 | 0.00 | 52 | 1016.9 |
| 20260901061126 | 79 | 226 | 8.0 | 13.0 | 0.00 | 0.01 | 0.00 | 52 | 1017.0 |
| 20260901060625 | 79 | 206 | 7.0 | 13.0 | 0.00 | 0.01 | 0.00 | 52 | 1017.0 |
| 20260901060133 | 79 | 197 | 8.0 | 13.0 | 0.00 | 0.01 | 0.00 | 52 | 1017.0 |
| 20260901055621 | 79 | 207 | 6.0 | 11.0 | 0.00 | 0.01 | 0.00 | 52 | 1016.9 |
| 20260901055121 | 79 | 187 | 5.0 | 11.0 | 0.00 | 0.01 | 0.00 | 52 | 1016.8 |
| 20260901054631 | 79 | 224 | 7.0 | 11.0 | 0.00 | 0.01 | 0.00 | 52 | 1017.1 |
| 20260901054121 | 79 | 215 | 6.0 | 9.0 | 0.00 | 0.01 | 0.00 | 52 | 1016.9 |
| 20260901053626 | 80 | 200 | 6.0 | 11.0 | 0.00 | 0.01 | 0.00 | 51 | 1017.1 |
| 20260901053129 | 80 | 252 | 7.0 | 12.0 | 0.00 | 0.01 | 0.00 | 49 | 1017.1 |
| 20260901052624 | 81 | 207 | 7.0 | 14.0 | 0.00 | 0.01 | 0.00 | 48 | 1016.8 |
| 20260901052219 | 81 | 203 | 8.0 | 14.0 | 0.00 | 0.01 | 0.00 | 47 | 1016.6 |
| 20260901051614 | 81 | 171 | 10.0 | 14.0 | 0.00 | 0.01 | 0.00 | 47 | 1016.6 |
| 20260901051125 | 81 | 175 | 9.0 | 13.0 | 0.00 | 0.01 | 0.00 | 46 | 1016.5 |
| 20260901050549 | 82 | 157 | 8.0 | 13.0 | 0.00 | 0.01 | 0.00 | 46 | 1016.3 |
| 20260901050108 | 82 | 162 | 10.0 | 14.0 | 0.00 | 0.01 | 0.00 | 45 | 1016.3 |
| 20260901045548 | 82 | 175 | 9.0 | 14.0 | 0.00 | 0.01 | 0.01 | 45 | 1016.4 |
| 20260901045046 | 83 | 154 | 10.0 | 14.0 | 0.00 | 0.01 | 0.01 | 45 | 1016.2 |
| 20260901044607 | 83 | 168 | 9.0 | 14.0 | 0.00 | 0.01 | 0.01 | 44 | 1016.3 |
| 20260901044049 | 83 | 171 | 10.0 | 15.0 | 0.00 | 0.01 | 0.01 | 44 | 1016.3 |
| 20260901043549 | 83 | 175 | 10.0 | 15.0 | 0.00 | 0.01 | 0.01 | 44 | 1016.3 |
| 20260901043109 | 84 | 181 | 10.0 | 16.0 | 0.00 | 0.01 | 0.01 | 43 | 1016.3 |
| 20260901042546 | 84 | 192 | 11.0 | 16.0 | 0.00 | 0.01 | 0.01 | 43 | 1016.4 |
| 20260901042049 | 84 | 183 | 9.0 | 16.0 | 0.00 | 0.01 | 0.01 | 43 | 1016.3 |
| 20260901041621 | 84 | 191 | 8.0 | 16.0 | 0.00 | 0.01 | 0.01 | 43 | 1016.2 |
| 20260901041049 | 84 | 174 | 10.0 | 16.0 | 0.00 | 0.01 | 0.01 | 43 | 1016.1 |
| 20260901040549 | 84 | 193 | 9.0 | 14.0 | 0.00 | 0.01 | 0.01 | 43 | 1016.1 |
| 20260901040138 | 84 | 163 | 9.0 | 14.0 | 0.00 | 0.01 | 0.01 | 43 | 1016.0 |
| 20260901035549 | 84 | 163 | 9.0 | 14.0 | 0.00 | 0.01 | 0.01 | 43 | 1016.0 |
| 20260901035050 | 84 | 186 | 8.0 | 11.0 | 0.00 | 0.01 | 0.01 | 44 | 1016.0 |
| 20260901034611 | 84 | 172 | 7.0 | 11.0 | 0.00 | 0.01 | 0.01 | 43 | 1016.0 |
| 20260901034051 | 84 | 180 | 7.0 | 11.0 | 0.00 | 0.01 | 0.01 | 43 | 1016.1 |
| 20260901033551 | 85 | 160 | 8.0 | 12.0 | 0.00 | 0.01 | 0.01 | 42 | 1016.2 |
| 20260901033103 | 85 | 174 | 9.0 | 12.0 | 0.00 | 0.01 | 0.01 | 42 | 1016.1 |
| 20260901032551 | 85 | 189 | 9.0 | 14.0 | 0.00 | 0.01 | 0.01 | 42 | 1016.0 |
| 20260901032049 | 86 | 165 | 9.0 | 14.0 | 0.00 | 0.01 | 0.01 | 41 | 1016.0 |
| 20260901031559 | 86 | 197 | 10.0 | 14.0 | 0.00 | 0.01 | 0.01 | 41 | 1015.9 |
| 20260901031048 | 86 | 156 | 10.0 | 15.0 | 0.00 | 0.01 | 0.01 | 41 | 1015.8 |
| 20260901030547 | 86 | 193 | 9.0 | 15.0 | 0.00 | 0.01 | 0.01 | 41 | 1015.8 |
| 20260901030111 | 86 | 174 | 9.0 | 13.0 | 0.00 | 0.01 | 0.01 | 40 | 1015.7 |
| 20260901025548 | 86 | 162 | 8.0 | 12.0 | 0.00 | 0.01 | 0.01 | 40 | 1015.5 |
| 20260901025053 | 87 | 166 | 9.0 | 12.0 | 0.00 | 0.01 | 0.01 | 40 | 1015.4 |
| 20260901024606 | 87 | 162 | 8.0 | 13.0 | 0.00 | 0.01 | 0.01 | 39 | 1015.4 |
| 20260901024048 | 87 | 178 | 9.0 | 13.0 | 0.00 | 0.01 | 0.01 | 39 | 1015.3 |
| 20260901023548 | 87 | 160 | 9.0 | 13.0 | 0.00 | 0.01 | 0.01 | 39 | 1015.3 |
| 20260901023107 | 87 | 171 | 8.0 | 11.0 | 0.00 | 0.01 | 0.01 | 39 | 1015.2 |
| 20260901022548 | 87 | 162 | 7.0 | 11.0 | 0.00 | 0.01 | 0.01 | 39 | 1015.1 |
| 20260901022048 | 88 | 148 | 6.0 | 11.0 | 0.00 | 0.01 | 0.01 | 38 | 1015.0 |
| 20260901021603 | 88 | 161 | 8.0 | 13.0 | 0.00 | 0.01 | 0.01 | 38 | 1014.9 |
| 20260901021048 | 88 | 149 | 8.0 | 13.0 | 0.00 | 0.01 | 0.01 | 38 | 1014.8 |
| 20260901020548 | 88 | 156 | 9.0 | 12.0 | 0.00 | 0.01 | 0.01 | 38 | 1014.6 |
| 20260901020105 | 88 | 134 | 8.0 | 11.0 | 0.00 | 0.01 | 0.01 | 38 | 1014.5 |
| 20260901015548 | 88 | 155 | 7.0 | 10.0 | 0.00 | 0.01 | 0.01 | 38 | 1014.3 |
| 20260901015048 | 89 | 148 | 7.0 | 9.0 | 0.00 | 0.01 | 0.01 | 38 | 1014.3 |
| 20260901014606 | 89 | 152 | 6.0 | 9.0 | 0.00 | 0.01 | 0.01 | 37 | 1014.2 |
| 20260901014048 | 89 | 157 | 5.0 | 7.0 | 0.00 | 0.01 | 0.01 | 38 | 1014.0 |
| 20260901013547 | 89 | 136 | 5.0 | 6.0 | 0.00 | 0.01 | 0.01 | 38 | 1014.1 |
| 20260901013104 | 88 | 137 | 4.0 | 6.0 | 0.00 | 0.01 | 0.01 | 38 | 1014.0 |
| 20260901012547 | 89 | 150 | 3.0 | 5.0 | 0.00 | 0.01 | 0.01 | 37 | 1013.9 |
| 20260901012049 | 90 | 154 | 2.0 | 4.0 | 0.00 | 0.01 | 0.01 | 36 | 1013.9 |
| 20260901011603 | 90 | 0 | 0.0 | 4.0 | 0.00 | 0.01 | 0.01 | 35 | 1013.8 |
| 20260901011047 | 91 | 0 | 0.0 | 4.0 | 0.00 | 0.01 | 0.01 | 34 | 1013.7 |
| 20260901010548 | 92 | 167 | 2.0 | 4.0 | 0.00 | 0.01 | 0.01 | 34 | 1013.5 |
| 20260901010116 | 93 | 161 | 1.0 | 4.0 | 0.00 | 0.01 | 0.01 | 33 | 1013.6 |
| 20260901005549 | 94 | 163 | 2.0 | 7.0 | 0.00 | 0.01 | 0.01 | 32 | 1013.5 |
| 20260901005049 | 95 | 171 | 3.0 | 7.0 | 0.00 | 0.01 | 0.01 | 31 | 1013.4 |
| 20260901004609 | 96 | 157 | 5.0 | 7.0 | 0.00 | 0.01 | 0.01 | 30 | 1013.5 |
| 20260901004049 | 98 | 158 | 4.0 | 6.0 | 0.00 | 0.01 | 0.01 | 29 | 1013.5 |
| 20260901003548 | 99 | 180 | 4.0 | 5.0 | 0.00 | 0.01 | 0.01 | 28 | 1013.5 |
| 20260901003107 | 99 | 130 | 2.0 | 6.0 | 0.00 | 0.01 | 0.01 | 27 | 1013.6 |
| 20260901002548 | 99 | 0 | 1.0 | 6.0 | 0.00 | 0.01 | 0.01 | 28 | 1013.6 |
| 20260901002049 | 99 | 0 | 4.0 | 19.0 | 0.00 | 0.01 | 0.01 | 28 | 1013.6 |
| 20260901001604 | 99 | 201 | 5.0 | 19.0 | 0.00 | 0.01 | 0.01 | 28 | 1013.6 |
| 20260901001051 | 99 | 188 | 10.0 | 17.0 | 0.00 | 0.01 | 0.01 | 27 | 1013.4 |
| 20260901000549 | 100 | 131 | 6.0 | 13.0 | 0.00 | 0.01 | 0.01 | 26 | 1013.5 |
| 20260901000111 | 100 | 139 | 5.0 | 13.0 | 0.00 | 0.01 | 0.01 | 26 | 1013.5 |
| 20260831235548 | 100 | 146 | 7.0 | 11.0 | 0.00 | 0.01 | 0.01 | 26 | 1013.4 |
| 20260831235048 | 100 | 144 | 5.0 | 10.0 | 0.00 | 0.01 | 0.01 | 26 | 1013.4 |
| 20260831234606 | 100 | 222 | 4.0 | 9.0 | 0.00 | 0.01 | 0.01 | 27 | 1013.5 |
| 20260831234049 | 100 | 238 | 4.0 | 10.0 | 0.00 | 0.01 | 0.01 | 27 | 1013.6 |
| 20260831233548 | 101 | 217 | 6.0 | 10.0 | 0.00 | 0.01 | 0.01 | 27 | 1013.5 |
| 20260831233118 | 101 | 180 | 6.0 | 8.0 | 0.00 | 0.01 | 0.01 | 26 | 1013.4 |
| 20260831232549 | 101 | 119 | 0.0 | 12.0 | 0.00 | 0.01 | 0.01 | 27 | 1013.3 |
| 20260831232048 | 101 | 245 | 6.0 | 12.0 | 0.00 | 0.01 | 0.01 | 26 | 1013.4 |
| 20260831231559 | 101 | 137 | 6.0 | 11.0 | 0.00 | 0.01 | 0.01 | 26 | 1013.4 |
| 20260831231049 | 101 | 165 | 5.0 | 10.0 | 0.00 | 0.01 | 0.01 | 27 | 1013.4 |
| 20260831230549 | 100 | 264 | 7.0 | 13.0 | 0.00 | 0.01 | 0.01 | 27 | 1013.4 |
| 20260831230112 | 101 | 251 | 8.0 | 13.0 | 0.00 | 0.01 | 0.01 | 27 | 1013.4 |
| 20260831225548 | 100 | 266 | 3.0 | 13.0 | 0.00 | 0.01 | 0.01 | 28 | 1013.5 |
| 20260831225048 | 100 | 246 | 5.0 | 16.0 | 0.00 | 0.01 | 0.01 | 27 | 1013.5 |
| 20260831224602 | 101 | 217 | 9.0 | 16.0 | 0.00 | 0.01 | 0.01 | 27 | 1013.6 |
| 20260831224048 | 101 | 211 | 9.0 | 16.0 | 0.00 | 0.01 | 0.01 | 27 | 1013.6 |
| 20260831223550 | 101 | 208 | 9.0 | 15.0 | 0.00 | 0.01 | 0.01 | 27 | 1013.6 |
| 20260831223108 | 101 | 249 | 6.0 | 15.0 | 0.00 | 0.01 | 0.01 | 28 | 1013.7 |
| 20260831222549 | 101 | 246 | 7.0 | 15.0 | 0.00 | 0.01 | 0.01 | 27 | 1013.7 |
| 20260831222049 | 101 | 146 | 5.0 | 13.0 | 0.00 | 0.01 | 0.01 | 28 | 1013.7 |
| 20260831221608 | 101 | 224 | 4.0 | 11.0 | 0.00 | 0.01 | 0.01 | 27 | 1013.8 |
| 20260831221047 | 101 | 181 | 6.0 | 11.0 | 0.00 | 0.01 | 0.01 | 28 | 1013.9 |
| 20260831220548 | 101 | 233 | 5.0 | 19.0 | 0.00 | 0.01 | 0.01 | 28 | 1013.9 |
| 20260831220106 | 101 | 195 | 10.0 | 19.0 | 0.00 | 0.01 | 0.01 | 26 | 1014.0 |
| 20260831215548 | 100 | 207 | 13.0 | 18.0 | 0.00 | 0.01 | 0.01 | 27 | 1013.9 |
| 20260831215048 | 100 | 271 | 4.0 | 14.0 | 0.00 | 0.01 | 0.01 | 29 | 1014.1 |
| 20260831214610 | 100 | 207 | 4.0 | 14.0 | 0.00 | 0.01 | 0.01 | 29 | 1014.2 |
| 20260831214048 | 100 | 188 | 9.0 | 14.0 | 0.00 | 0.01 | 0.01 | 29 | 1014.3 |
| 20260831213547 | 100 | 223 | 7.0 | 13.0 | 0.00 | 0.01 | 0.01 | 29 | 1014.3 |
| 20260831213109 | 99 | 191 | 6.0 | 16.0 | 0.00 | 0.01 | 0.01 | 30 | 1014.4 |
| 20260831212550 | 99 | 165 | 8.0 | 16.0 | 0.00 | 0.01 | 0.01 | 29 | 1014.5 |
| 20260831212048 | 99 | 245 | 10.0 | 18.0 | 0.00 | 0.01 | 0.01 | 30 | 1014.5 |
| 20260831211607 | 99 | 191 | 9.0 | 18.0 | 0.00 | 0.01 | 0.01 | 30 | 1014.6 |
| 20260831211049 | 99 | 209 | 8.0 | 15.0 | 0.00 | 0.01 | 0.01 | 29 | 1014.6 |
| 20260831210550 | 99 | 230 | 8.0 | 18.0 | 0.00 | 0.01 | 0.01 | 30 | 1014.7 |
| 20260831205550 | 99 | 229 | 6.0 | 16.0 | 0.00 | 0.01 | 0.01 | 30 | 1014.8 |
| 20260831205049 | 99 | 209 | 10.0 | 16.0 | 0.00 | 0.01 | 0.01 | 30 | 1014.9 |
| 20260831204609 | 99 | 213 | 9.0 | 16.0 | 0.00 | 0.01 | 0.01 | 30 | 1015.0 |
| 20260831204049 | 98 | 250 | 9.0 | 16.0 | 0.00 | 0.01 | 0.01 | 31 | 1015.1 |
| 20260831203548 | 98 | 233 | 7.0 | 15.0 | 0.00 | 0.01 | 0.01 | 31 | 1014.9 |
| 20260831203115 | 98 | 226 | 10.0 | 15.0 | 0.00 | 0.01 | 0.01 | 31 | 1015.1 |
| 20260831202548 | 98 | 231 | 8.0 | 15.0 | 0.00 | 0.01 | 0.01 | 32 | 1015.3 |
| 20260831202052 | 98 | 263 | 5.0 | 17.0 | 0.00 | 0.01 | 0.01 | 32 | 1015.3 |
| 20260831201607 | 98 | 206 | 10.0 | 17.0 | 0.00 | 0.01 | 0.01 | 32 | 1015.4 |
| 20260831201049 | 98 | 239 | 7.0 | 15.0 | 0.00 | 0.01 | 0.01 | 33 | 1015.4 |
| 20260831200550 | 98 | 225 | 6.0 | 15.0 | 0.00 | 0.01 | 0.01 | 32 | 1015.4 |
| 20260831200106 | 98 | 190 | 8.0 | 16.0 | 0.00 | 0.01 | 0.01 | 32 | 1015.6 |
| 20260831195548 | 98 | 262 | 6.0 | 17.0 | 0.00 | 0.01 | 0.01 | 33 | 1015.6 |
| 20260831195048 | 98 | 250 | 8.0 | 17.0 | 0.00 | 0.01 | 0.01 | 32 | 1015.7 |
| 20260831194638 | 98 | 245 | 6.0 | 11.0 | 0.00 | 0.01 | 0.01 | 33 | 1015.7 |
| 20260831194049 | 97 | 192 | 6.0 | 18.0 | 0.00 | 0.01 | 0.01 | 33 | 1015.8 |
| 20260831193550 | 97 | 267 | 11.0 | 18.0 | 0.00 | 0.01 | 0.01 | 33 | 1015.7 |
| 20260831193106 | 97 | 256 | 5.0 | 14.0 | 0.00 | 0.01 | 0.01 | 33 | 1015.8 |